Location: Unspecified
(35.6961°N, 0.0000°E)
Time: 18:16:26
(UTC+00:00)

Explorer 11/Cluster Stage 4 - Pass Details

Date: 27 May 2019
Orbit: 467 x 1260 km, 28.8° (Epoch: 19 June)

Event Time Altitude Azimuth Distance (km) Brightness Sun altitude
Rises 04:41:18 0° 262° (W) 3,224 - -2.0°
Exits shadow 04:41:25 - 262° (W) 3,178 9.1 -2.0°
Reaches altitude 10° 04:44:15 10° 253° (WSW) 2,150 8.2 -1.4°
Maximum altitude 04:48:31 29° 193° (SSW) 1,105 7.1 -0.7°
Drops below altitude 10° 04:52:08 10° 131° (SE) 1,800 8.8 0.0°
Sets 04:54:23 0° 120° (ESE) 2,610 9.8 0.4°
